• In Österreich
  • Länderverzeichnis
  • Für 7 Tage
  • Wassertemperatur
  • Satellitenkarten
  • Wetterkarte
  • News
  • Widgets
  • user-avatar
    Anmelden

    Stündliche Wetter Darwin

    Heute, 13 Dezember, Mittwoch

    Zeit Temperatur Niederschläge Wind Luftdruck Luftfeuchtigkeit
    00:00 +30°C° 1,2 mm 2 m/S 756 mmHg 79%
    01:00 +30°C° 0 mm 2 m/S 755 mmHg 78%
    02:00 +30°C° 0 mm 2 m/S 755 mmHg 78%
    03:00 +30°C° 0 mm 2 m/S 755 mmHg 77%
    04:00 +29°C° 0 mm 1 m/S 755 mmHg 77%
    05:00 +29°C° 0 mm 1 m/S 756 mmHg 78%
    06:00 +29°C° 0 mm 1 m/S 756 mmHg 78%
    07:00 +31°C° 0 mm 1 m/S 756 mmHg 70%
    08:00 +34°C° 0 mm 2 m/S 756 mmHg 62%
    09:00 +36°C° 0 mm 2 m/S 757 mmHg 54%
    10:00 +37°C° 0,2 mm 2 m/S 756 mmHg 51%
    11:00 +38°C° 0,2 mm 3 m/S 756 mmHg 48%
    12:00 +39°C° 0,2 mm 3 m/S 756 mmHg 44%
    13:00 +40°C° 0,3 mm 4 m/S 755 mmHg 46%
    14:00 +38°C° 0,3 mm 4 m/S 755 mmHg 47%
    15:00 +39°C° 0,3 mm 5 m/S 754 mmHg 49%
    16:00 +37°C° 0,7 mm 4 m/S 754 mmHg 56%
    17:00 +35°C° 0,7 mm 4 m/S 754 mmHg 63%
    18:00 +33°C° 0,7 mm 4 m/S 754 mmHg 70%
    19:00 +33°C° 0,8 mm 4 m/S 755 mmHg 74%
    20:00 +32°C° 0,8 mm 4 m/S 755 mmHg 78%
    21:00 +30°C° 0,8 mm 3 m/S 756 mmHg 82%
    22:00 +30°C° 2,1 mm 3 m/S 756 mmHg 82%
    23:00 +29°C° 2,1 mm 3 m/S 756 mmHg 83%

    Morgen, 14 Dezember, Donnerstag

    Zeit Temperatur Niederschläge Wind Luftdruck Luftfeuchtigkeit
    00:00 +29°C° 2,1 mm 3 m/S 756 mmHg 84%
    01:00 +29°C° 0,2 mm 3 m/S 756 mmHg 84%
    02:00 +29°C° 0,2 mm 3 m/S 756 mmHg 84%
    03:00 +28°C° 0,2 mm 2 m/S 755 mmHg 84%
    04:00 +28°C° 0 mm 2 m/S 755 mmHg 84%
    05:00 +28°C° 0 mm 2 m/S 756 mmHg 84%
    06:00 +28°C° 0 mm 2 m/S 756 mmHg 85%
    07:00 +30°C° 0 mm 2 m/S 756 mmHg 78%
    08:00 +31°C° 0 mm 2 m/S 756 mmHg 71%
    09:00 +34°C° 0 mm 2 m/S 757 mmHg 64%
    10:00 +35°C° 0 mm 2 m/S 756 mmHg 58%
    11:00 +37°C° 0 mm 3 m/S 756 mmHg 51%
    12:00 +39°C° 0 mm 3 m/S 755 mmHg 45%
    13:00 +38°C° 0 mm 4 m/S 755 mmHg 46%
    14:00 +38°C° 0 mm 4 m/S 754 mmHg 47%
    15:00 +37°C° 0 mm 5 m/S 754 mmHg 48%
    16:00 +36°C° 0,6 mm 4 m/S 754 mmHg 55%
    17:00 +35°C° 0,6 mm 4 m/S 754 mmHg 62%
    18:00 +33°C° 0,6 mm 3 m/S 754 mmHg 68%
    19:00 +33°C° 0,3 mm 3 m/S 754 mmHg 71%
    20:00 +31°C° 0,3 mm 3 m/S 755 mmHg 74%
    21:00 +30°C° 0,3 mm 3 m/S 755 mmHg 77%
    22:00 +30°C° 0 mm 3 m/S 755 mmHg 77%
    23:00 +30°C° 0 mm 3 m/S 755 mmHg 78%

    übermorgen, 15 Dezember, Freitag

    Zeit Temperatur Niederschläge Wind Luftdruck Luftfeuchtigkeit
    00:00 +30°C° 0 mm 3 m/S 755 mmHg 78%
    01:00 +30°C° 0,9 mm 3 m/S 755 mmHg 79%
    02:00 +30°C° 0,9 mm 2 m/S 754 mmHg 81%
    03:00 +29°C° 0,9 mm 2 m/S 754 mmHg 82%
    04:00 +29°C° 0,1 mm 2 m/S 755 mmHg 82%
    05:00 +29°C° 0,1 mm 2 m/S 755 mmHg 81%
    06:00 +29°C° 0,1 mm 2 m/S 755 mmHg 81%
    07:00 +31°C° 0 mm 2 m/S 756 mmHg 73%
    08:00 +32°C° 0 mm 2 m/S 756 mmHg 66%
    09:00 +35°C° 0 mm 2 m/S 757 mmHg 58%
    10:00 +36°C° 0 mm 2 m/S 756 mmHg 53%
    11:00 +37°C° 0 mm 3 m/S 756 mmHg 49%
    12:00 +38°C° 0 mm 3 m/S 755 mmHg 44%
    13:00 +38°C° 0 mm 3 m/S 755 mmHg 45%
    14:00 +38°C° 0 mm 4 m/S 754 mmHg 45%
    15:00 +38°C° 0 mm 4 m/S 753 mmHg 45%
    16:00 +37°C° 0 mm 4 m/S 753 mmHg 49%
    17:00 +36°C° 0 mm 4 m/S 753 mmHg 53%
    18:00 +35°C° 0 mm 4 m/S 753 mmHg 56%
    19:00 +34°C° 0,1 mm 4 m/S 754 mmHg 62%
    20:00 +33°C° 0,1 mm 4 m/S 755 mmHg 68%
    21:00 +31°C° 0,1 mm 3 m/S 755 mmHg 73%
    22:00 +30°C° 1,5 mm 3 m/S 756 mmHg 76%
    23:00 +30°C° 1,5 mm 2 m/S 756 mmHg 78%

    16 Dezember, Samstag

    Zeit Temperatur Niederschläge Wind Luftdruck Luftfeuchtigkeit
    00:00 +30°C° 1,5 mm 2 m/S 756 mmHg 81%
    01:00 +30°C° 0,2 mm 2 m/S 756 mmHg 80%
    02:00 +30°C° 0,2 mm 2 m/S 756 mmHg 80%
    03:00 +30°C° 0,2 mm 2 m/S 756 mmHg 79%
    04:00 +29°C° 0,1 mm 2 m/S 756 mmHg 80%
    05:00 +29°C° 0,1 mm 1 m/S 756 mmHg 81%
    06:00 +29°C° 0,1 mm 1 m/S 757 mmHg 82%
    07:00 +31°C° 0 mm 1 m/S 757 mmHg 73%
    08:00 +33°C° 0 mm 1 m/S 757 mmHg 64%
    09:00 +35°C° 0 mm 1 m/S 757 mmHg 55%
    10:00 +36°C° 0 mm 1 m/S 757 mmHg 52%
    11:00 +38°C° 0 mm 2 m/S 757 mmHg 48%
    12:00 +39°C° 0 mm 2 m/S 756 mmHg 44%
    13:00 +39°C° 0 mm 3 m/S 756 mmHg 44%
    14:00 +39°C° 0 mm 3 m/S 755 mmHg 44%
    15:00 +38°C° 0 mm 3 m/S 755 mmHg 44%
    16:00 +38°C° 0 mm 3 m/S 755 mmHg 47%
    17:00 +37°C° 0 mm 3 m/S 755 mmHg 51%
    18:00 +36°C° 0 mm 3 m/S 755 mmHg 54%
    19:00 +35°C° 0 mm 3 m/S 755 mmHg 58%
    20:00 +34°C° 0 mm 3 m/S 756 mmHg 62%
    21:00 +33°C° 0 mm 3 m/S 756 mmHg 67%
    22:00 +31°C° 0,1 mm 3 m/S 756 mmHg 70%
    23:00 +31°C° 0,1 mm 3 m/S 756 mmHg 74%

    17 Dezember, Sonntag

    Zeit Temperatur Niederschläge Wind Luftdruck Luftfeuchtigkeit
    00:00 +30°C° 0,1 mm 3 m/S 756 mmHg 77%
    01:00 +30°C° 0,9 mm 3 m/S 756 mmHg 80%
    02:00 +29°C° 0,9 mm 3 m/S 756 mmHg 82%
    03:00 +29°C° 0,9 mm 2 m/S 755 mmHg 84%
    04:00 +29°C° 0,3 mm 2 m/S 756 mmHg 84%
    05:00 +29°C° 0,3 mm 2 m/S 756 mmHg 83%
    06:00 +29°C° 0,3 mm 1 m/S 756 mmHg 83%
    07:00 +31°C° 0 mm 2 m/S 757 mmHg 76%
    08:00 +32°C° 0 mm 2 m/S 757 mmHg 68%
    09:00 +35°C° 0 mm 2 m/S 757 mmHg 61%
    10:00 +36°C° 0,1 mm 2 m/S 757 mmHg 58%
    11:00 +36°C° 0,1 mm 2 m/S 756 mmHg 55%
    12:00 +37°C° 0,1 mm 3 m/S 756 mmHg 51%
    13:00 +37°C° 0,3 mm 3 m/S 755 mmHg 51%
    14:00 +37°C° 0,3 mm 3 m/S 755 mmHg 51%
    15:00 +37°C° 0,3 mm 3 m/S 754 mmHg 50%
    16:00 +36°C° 0,3 mm 3 m/S 754 mmHg 54%
    17:00 +36°C° 0,3 mm 3 m/S 755 mmHg 57%
    18:00 +35°C° 0,3 mm 3 m/S 755 mmHg 61%
    19:00 +34°C° 0,2 mm 4 m/S 755 mmHg 66%
    20:00 +33°C° 0,2 mm 4 m/S 755 mmHg 71%
    21:00 +30°C° 0,2 mm 4 m/S 756 mmHg 76%
    22:00 +30°C° 0,4 mm 4 m/S 756 mmHg 77%
    23:00 +30°C° 0,4 mm 3 m/S 756 mmHg 79%

    18 Dezember, Montag

    Zeit Temperatur Niederschläge Wind Luftdruck Luftfeuchtigkeit
    00:00 +30°C° 0,4 mm 3 m/S 756 mmHg 80%
    01:00 +29°C° 3 mm 3 m/S 755 mmHg 82%
    02:00 +29°C° 3 mm 2 m/S 755 mmHg 85%
    03:00 +28°C° 3 mm 2 m/S 755 mmHg 87%
    04:00 +28°C° 1,6 mm 2 m/S 755 mmHg 87%
    05:00 +28°C° 1,6 mm 3 m/S 756 mmHg 88%
    06:00 +28°C° 1,6 mm 4 m/S 756 mmHg 88%
    07:00 +28°C° 0 mm 3 m/S 756 mmHg 85%
    08:00 +29°C° 0 mm 3 m/S 757 mmHg 83%
    09:00 +29°C° 0 mm 3 m/S 757 mmHg 81%
    10:00 +30°C° 0 mm 3 m/S 756 mmHg 76%
    11:00 +31°C° 0 mm 3 m/S 756 mmHg 71%
    12:00 +33°C° 0 mm 3 m/S 755 mmHg 67%
    13:00 +34°C° 0 mm 3 m/S 755 mmHg 62%
    14:00 +34°C° 0 mm 3 m/S 754 mmHg 58%
    15:00 +35°C° 0 mm 2 m/S 753 mmHg 54%
    16:00 +35°C° 0 mm 2 m/S 754 mmHg 58%
    17:00 +34°C° 0 mm 2 m/S 754 mmHg 61%
    18:00 +32°C° 0 mm 2 m/S 754 mmHg 65%
    19:00 +33°C° 0 mm 3 m/S 755 mmHg 68%
    20:00 +31°C° 0 mm 3 m/S 755 mmHg 70%
    21:00 +30°C° 0 mm 3 m/S 756 mmHg 73%
    22:00 +30°C° 0 mm 3 m/S 756 mmHg 74%
    23:00 +30°C° 0 mm 3 m/S 755 mmHg 74%
    Mehr zeigen